Location: Dackenheim
(49.5215°N, 8.1854°E)
Time: 12:24:11
(UTC+00:00)

JY1SAT - Pass Details

Date: 16 March 2026
Orbit: 466 x 476 km, 97.4° (Epoch: 14 April)

Event Time Altitude Azimuth Distance (km) Brightness Sun altitude
Exits shadow 19:53:03 21° 20° (NNE) 1,151 ? -22.7°
Drops below altitude 10° 19:54:30 10° 4° (N) 1,667 ? -22.9°
Sets 19:56:42 0° 355° (N) 2,551 ? -23.2°
